Time,TemperatureF,DewpointF,PressureIn,WindDirection,WindDirectionDegrees,WindSpeedMPH,WindSpeedGustMPH,Humidity,HourlyPrecipIn,Conditions,Clouds,dailyrainin,SolarRadiationWatts/m^2,SoftwareType,DateUTC
2013-01-04 00:00:00,26.2,14.6,29.81,West,270,0.0,0.0,61,0.00,SCT,SKC,0.00,0.0,WeatherDisplay:10.37,2013-01-04 05:00:00,
2013-01-04 00:03:00,26.1,14.4,29.81,WSW,248,0.0,0.0,61,0.00,SCT,SKC,0.00,0.0,WeatherDisplay:10.37,2013-01-04 05:03:00,
2013-01-04 00:08:00,26.1,14.8,29.81,ENE,68,0.0,0.0,62,0.00,SCT,SKC,0.00,0.0,WeatherDisplay:10.37,2013-01-04 05:08:00,
2013-01-04 00:13:00,25.9,14.6,29.79,ENE,68,0.0,0.0,62,0.00,SCT,SKC,0.00,0.0,WeatherDisplay:10.37,2013-01-04 05:13:00,
2013-01-04 00:18:00,25.7,14.5,29.79,SSE,158,0.1,0.0,62,0.00,SCT,SKC,0.00,0.0,WeatherDisplay:10.37,2013-01-04 05:18:00,
2013-01-04 00:23:00,25.5,14.3,29.79,WNW,292,0.1,0.0,62,0.00,SCT,SKC,0.00,0.0,WeatherDisplay:10.37,2013-01-04 05:23:00,
2013-01-04 00:28:00,25.3,14.5,29.79,WSW,248,0.0,0.0,63,0.00,SCT,SKC,0.00,0.0,WeatherDisplay:10.37,2013-01-04 05:28:00,
2013-01-04 00:33:00,25.3,14.5,29.79,ESE,112,0.0,0.0,63,0.00,SCT,SKC,0.00,0.0,WeatherDisplay:10.37,2013-01-04 05:33:00,
2013-01-04 00:38:00,25.0,14.2,29.79,SSW,202,0.0,0.0,63,0.00,SCT,SKC,0.00,0.0,WeatherDisplay:10.37,2013-01-04 05:38:00,
2013-01-04 00:43:00,25.0,14.2,29.79,WSW,248,0.0,0.0,63,0.00,SCT,SKC,0.00,0.0,WeatherDisplay:10.37,2013-01-04 05:43:00,
2013-01-04 00:48:00,24.6,13.8,29.79,SW,225,0.0,0.0,63,0.00,SCT,SKC,0.00,0.0,WeatherDisplay:10.37,2013-01-04 05:48:00,
2013-01-04 00:53:00,24.6,14.2,29.79,SW,225,0.0,0.0,64,0.00,SCT,SKC,0.00,0.0,WeatherDisplay:10.37,2013-01-04 05:53:00,
2013-01-04 00:58:00,24.6,14.2,29.79,SW,225,0.0,0.0,64,0.00,SCT,SKC,0.00,0.0,WeatherDisplay:10.37,2013-01-04 05:58:00,
2013-01-04 01:03:00,24.6,14.2,29.79,SSW,202,0.1,0.0,64,0.00,SCT,SKC,0.00,0.0,WeatherDisplay:10.37,2013-01-04 06:03:00,
2013-01-04 01:08:00,24.6,14.5,29.79,South,180,0.1,0.0,65,0.00,SCT,SKC,0.00,0.0,WeatherDisplay:10.37,2013-01-04 06:08:00,
2013-01-04 01:13:00,24.6,14.5,29.77,South,180,0.2,1.1,65,0.00,SCT,SKC,0.00,0.0,WeatherDisplay:10.37,2013-01-04 06:13:00,
2013-01-04 01:18:00,24.6,14.5,29.77,South,180,0.3,2.3,65,0.00,SCT,SKC,0.00,0.0,WeatherDisplay:10.37,2013-01-04 06:18:00,
2013-01-04 01:23:00,24.8,14.7,29.77,WNW,292,0.5,2.3,65,0.00,SCT,SKC,0.00,0.0,WeatherDisplay:10.37,2013-01-04 06:23:00,
2013-01-04 01:28:00,24.8,14.7,29.77,West,270,0.6,1.1,65,0.00,SCT,SKC,0.00,0.0,WeatherDisplay:10.37,2013-01-04 06:28:00,
2013-01-04 01:33:00,25.0,14.9,29.78,SW,225,0.3,0.0,65,0.00,SCT,SKC,0.00,0.0,WeatherDisplay:10.37,2013-01-04 06:33:00,
2013-01-04 01:39:00,25.0,14.9,29.78,WSW,248,0.1,0.0,65,0.00,SCT,SKC,0.00,0.0,WeatherDisplay:10.37,2013-01-04 06:39:00,
2013-01-04 01:44:00,25.0,14.9,29.78,South,180,0.2,0.0,65,0.00,SCT,SKC,0.00,0.0,WeatherDisplay:10.37,2013-01-04 06:44:00,
2013-01-04 01:49:00,25.0,14.9,29.78,WSW,248,0.3,2.3,65,0.00,SCT,SKC,0.00,0.0,WeatherDisplay:10.37,2013-01-04 06:49:00,
2013-01-04 01:54:00,25.0,15.2,29.78,WSW,248,0.5,0.0,66,0.00,SCT,SKC,0.00,0.0,WeatherDisplay:10.37,2013-01-04 06:54:00,
2013-01-04 01:59:00,25.0,15.2,29.78,SSW,202,0.8,1.1,66,0.00,SCT,SKC,0.00,0.0,WeatherDisplay:10.37,2013-01-04 06:59:00,
2013-01-04 02:04:00,25.3,15.6,29.78,West,270,1.3,2.3,66,0.00,SCT,SKC,0.00,0.0,WeatherDisplay:10.37,2013-01-04 07:04:00,
2013-01-04 02:09:00,25.3,15.6,29.78,WSW,248,1.6,3.5,66,0.00,SCT,SKC,0.00,0.0,WeatherDisplay:10.37,2013-01-04 07:09:00,
2013-01-04 02:14:00,25.3,15.6,29.77,WNW,292,1.7,3.5,66,0.00,SCT,SKC,0.00,0.0,WeatherDisplay:10.37,2013-01-04 07:14:00,
2013-01-04 02:19:00,25.3,15.6,29.77,WSW,248,1.5,2.3,66,0.00,SCT,SKC,0.00,0.0,WeatherDisplay:10.37,2013-01-04 07:19:00,
2013-01-04 02:24:00,25.3,15.6,29.77,West,270,1.3,2.3,66,0.00,SCT,SKC,0.00,0.0,WeatherDisplay:10.37,2013-01-04 07:24:00,
2013-01-04 02:29:00,25.7,15.9,29.77,WSW,248,0.9,0.0,66,0.00,SCT,SKC,0.00,0.0,WeatherDisplay:10.37,2013-01-04 07:29:00,
2013-01-04 02:34:00,25.5,15.7,29.78,NW,315,0.8,0.0,66,0.00,SCT,SKC,0.00,0.0,WeatherDisplay:10.37,2013-01-04 07:34:00,
2013-01-04 02:39:00,25.5,15.7,29.78,West,270,0.3,0.0,66,0.00,SCT,SKC,0.00,0.0,WeatherDisplay:10.37,2013-01-04 07:39:00,
2013-01-04 02:44:00,25.7,16.3,29.78,WSW,248,0.7,1.1,67,0.00,SCT,SKC,0.00,0.0,WeatherDisplay:10.37,2013-01-04 07:44:00,
2013-01-04 02:49:00,25.7,16.3,29.78,West,270,0.8,1.1,67,0.00,SCT,SKC,0.00,0.0,WeatherDisplay:10.37,2013-01-04 07:49:00,
2013-01-04 02:54:00,25.7,16.3,29.76,West,270,0.9,1.1,67,0.00,SCT,SKC,0.00,0.0,WeatherDisplay:10.37,2013-01-04 07:54:00,
2013-01-04 02:59:00,25.7,16.3,29.76,SW,225,1.1,2.3,67,0.00,SCT,SKC,0.00,0.0,WeatherDisplay:10.37,2013-01-04 07:59:00,
2013-01-04 03:04:00,25.7,16.3,29.76,West,270,1.5,2.6,67,0.00,SCT,SKC,0.00,0.0,WeatherDisplay:10.37,2013-01-04 08:04:00,
2013-01-04 03:09:00,26.1,16.6,29.76,WSW,248,1.4,2.3,67,0.00,SCT,SKC,0.00,0.0,WeatherDisplay:10.37,2013-01-04 08:09:00,
2013-01-04 03:14:00,26.1,16.6,29.75,NW,315,1.3,2.3,67,0.00,SCT,SKC,0.00,0.0,WeatherDisplay:10.37,2013-01-04 08:14:00,
2013-01-04 03:19:00,26.1,16.6,29.75,East,90,1.3,2.3,67,0.00,SCT,SKC,0.00,0.0,WeatherDisplay:10.37,2013-01-04 08:19:00,
2013-01-04 03:24:00,26.1,16.6,29.75,WSW,248,0.8,0.0,67,0.00,SCT,SKC,0.00,0.0,WeatherDisplay:10.37,2013-01-04 08:24:00,
2013-01-04 03:29:00,26.1,16.6,29.75,West,270,0.6,2.3,67,0.00,SCT,SKC,0.00,0.0,WeatherDisplay:10.37,2013-01-04 08:29:00,
2013-01-04 03:34:00,26.1,16.6,29.74,NNW,338,0.3,0.0,67,0.00,SCT,SKC,0.00,0.0,WeatherDisplay:10.37,2013-01-04 08:34:00,
2013-01-04 03:39:00,26.1,16.6,29.74,ENE,68,0.2,0.0,67,0.00,SCT,SKC,0.00,0.0,WeatherDisplay:10.37,2013-01-04 08:39:00,
2013-01-04 03:44:00,25.9,16.4,29.74,SE,135,0.0,0.0,67,0.00,SCT,SKC,0.00,0.0,WeatherDisplay:10.37,2013-01-04 08:44:00,
2013-01-04 03:49:00,26.1,16.6,29.74,West,270,0.0,0.0,67,0.00,SCT,SKC,0.00,0.0,WeatherDisplay:10.37,2013-01-04 08:49:00,
2013-01-04 03:54:00,25.5,16.1,29.75,NW,315,0.0,0.0,67,0.00,SCT,SKC,0.00,0.0,WeatherDisplay:10.37,2013-01-04 08:54:00,
2013-01-04 03:59:00,25.5,16.1,29.75,SW,225,0.0,1.1,67,0.00,SCT,SKC,0.00,0.0,WeatherDisplay:10.37,2013-01-04 08:59:00,
2013-01-04 04:04:00,25.7,16.6,29.75,West,270,0.6,2.3,68,0.00,SCT,SKC,0.00,0.0,WeatherDisplay:10.37,2013-01-04 09:04:00,
2013-01-04 04:09:00,25.5,16.4,29.75,West,270,1.1,3.5,68,0.00,SCT,SKC,0.00,0.0,WeatherDisplay:10.37,2013-01-04 09:09:00,
2013-01-04 04:14:00,25.7,16.9,29.75,West,270,1.1,0.0,69,0.00,SCT,SKC,0.00,0.0,WeatherDisplay:10.37,2013-01-04 09:14:00,
2013-01-04 04:19:00,25.7,16.9,29.75,West,270,0.5,1.1,69,0.00,SCT,SKC,0.00,0.0,WeatherDisplay:10.37,2013-01-04 09:19:00,
2013-01-04 04:24:00,26.1,17.3,29.75,WNW,292,0.5,2.3,69,0.00,SCT,SKC,0.00,0.0,WeatherDisplay:10.37,2013-01-04 09:24:00,
2013-01-04 04:29:00,26.1,17.3,29.75,WSW,248,0.8,1.3,69,0.00,SCT,SKC,0.00,0.0,WeatherDisplay:10.37,2013-01-04 09:29:00,
2013-01-04 04:34:00,26.1,17.3,29.75,NW,315,1.1,3.5,69,0.00,SCT,SKC,0.00,0.0,WeatherDisplay:10.37,2013-01-04 09:34:00,
2013-01-04 04:39:00,26.1,17.3,29.75,WNW,292,1.4,1.4,69,0.00,SCT,SKC,0.00,0.0,WeatherDisplay:10.37,2013-01-04 09:39:00,
2013-01-04 04:44:00,26.1,17.3,29.75,WNW,292,1.6,3.5,69,0.00,SCT,SKC,0.00,0.0,WeatherDisplay:10.37,2013-01-04 09:44:00,
2013-01-04 04:49:00,26.1,17.3,29.75,West,270,1.8,2.3,69,0.00,SCT,SKC,0.00,0.0,WeatherDisplay:10.37,2013-01-04 09:49:00,
2013-01-04 04:54:00,26.1,17.3,29.76,West,270,1.5,2.3,69,0.00,SCT,SKC,0.00,0.0,WeatherDisplay:10.37,2013-01-04 09:54:00,
2013-01-04 04:59:00,26.1,17.3,29.76,SSW,202,1.0,2.3,69,0.00,SCT,SKC,0.00,0.0,WeatherDisplay:10.37,2013-01-04 09:59:00,
2013-01-04 05:04:00,26.1,17.3,29.76,WSW,248,1.1,1.4,69,0.00,SCT,SKC,0.00,0.0,WeatherDisplay:10.37,2013-01-04 10:04:00,
2013-01-04 05:09:00,26.1,17.3,29.76,SW,225,1.4,2.3,69,0.00,SCT,SKC,0.00,0.0,WeatherDisplay:10.37,2013-01-04 10:09:00,
2013-01-04 05:14:00,26.1,17.3,29.76,NW,315,1.8,2.3,69,0.00,SCT,SKC,0.00,0.0,WeatherDisplay:10.37,2013-01-04 10:14:00,
2013-01-04 05:19:00,26.1,17.3,29.76,WSW,248,1.8,3.9,69,0.00,SCT,SKC,0.00,0.0,WeatherDisplay:10.37,2013-01-04 10:19:00,
2013-01-04 05:24:00,26.1,17.3,29.76,SW,225,1.3,2.3,69,0.00,SCT,SKC,0.00,0.0,WeatherDisplay:10.37,2013-01-04 10:24:00,
2013-01-04 05:29:00,26.1,17.3,29.76,WNW,292,1.1,0.0,69,0.00,SCT,SKC,0.00,0.0,WeatherDisplay:10.37,2013-01-04 10:29:00,
2013-01-04 05:34:00,26.1,17.3,29.75,West,270,0.8,2.3,69,0.00,SCT,SKC,0.00,0.0,WeatherDisplay:10.37,2013-01-04 10:34:00,
2013-01-04 05:39:00,26.1,17.3,29.75,NNW,338,1.1,0.0,69,0.00,SCT,SKC,0.00,0.0,WeatherDisplay:10.37,2013-01-04 10:39:00,
2013-01-04 05:44:00,26.1,17.6,29.75,SSW,202,1.4,1.4,70,0.00,SCT,SKC,0.00,0.0,WeatherDisplay:10.37,2013-01-04 10:44:00,
2013-01-04 05:49:00,26.1,17.6,29.75,NW,315,1.1,3.5,70,0.00,SCT,SKC,0.00,0.0,WeatherDisplay:10.37,2013-01-04 10:49:00,
2013-01-04 05:54:00,25.9,17.4,29.77,WSW,248,0.9,1.1,70,0.00,SCT,SKC,0.00,0.0,WeatherDisplay:10.37,2013-01-04 10:54:00,
2013-01-04 05:59:00,26.1,17.6,29.77,WNW,292,1.4,2.4,70,0.00,SCT,SKC,0.00,0.0,WeatherDisplay:10.37,2013-01-04 10:59:00,
2013-01-04 06:04:00,25.7,17.3,29.77,WSW,248,1.6,3.7,70,0.00,SCT,SKC,0.00,0.0,WeatherDisplay:10.37,2013-01-04 11:04:00,
2013-01-04 06:09:00,26.1,17.6,29.77,WNW,292,1.1,2.3,70,0.00,SCT,SKC,0.00,0.0,WeatherDisplay:10.37,2013-01-04 11:09:00,
2013-01-04 06:14:00,26.1,17.6,29.77,WNW,292,1.0,0.0,70,0.00,SCT,SKC,0.00,0.0,WeatherDisplay:10.37,2013-01-04 11:14:00,
2013-01-04 06:19:00,26.1,17.6,29.77,NNW,338,1.1,1.1,70,0.00,SCT,SKC,0.00,0.0,WeatherDisplay:10.37,2013-01-04 11:19:00,
2013-01-04 06:24:00,26.1,17.6,29.77,North,0,1.1,2.3,70,0.00,SCT,SKC,0.00,0.0,WeatherDisplay:10.37,2013-01-04 11:24:00,
2013-01-04 06:29:00,26.1,17.6,29.77,SW,225,0.3,1.1,70,0.00,SCT,SKC,0.00,0.0,WeatherDisplay:10.37,2013-01-04 11:29:00,
2013-01-04 06:35:00,26.1,17.6,29.77,West,270,0.2,1.1,70,0.00,SCT,SKC,0.00,0.0,WeatherDisplay:10.37,2013-01-04 11:35:00,
2013-01-04 06:40:00,26.1,17.6,29.77,NNW,338,0.1,0.0,70,0.00,SCT,SKC,0.00,0.0,WeatherDisplay:10.37,2013-01-04 11:40:00,
2013-01-04 06:45:00,25.7,17.6,29.77,NNW,338,0.1,1.3,71,0.00,SCT,SKC,0.00,0.0,WeatherDisplay:10.37,2013-01-04 11:45:00,
2013-01-04 06:50:00,25.7,17.6,29.77,West,270,0.3,1.1,71,0.00,SCT,SKC,0.00,0.0,WeatherDisplay:10.37,2013-01-04 11:50:00,
2013-01-04 06:55:00,26.1,17.9,29.77,West,270,0.5,1.1,71,0.00,SCT,SKC,0.00,0.0,WeatherDisplay:10.37,2013-01-04 11:55:00,
2013-01-04 07:00:00,26.1,17.9,29.77,WNW,292,0.5,1.8,71,0.00,SCT,SKC,0.00,0.0,WeatherDisplay:10.37,2013-01-04 12:00:00,
2013-01-04 07:05:00,26.1,17.9,29.77,WSW,248,0.7,2.3,71,0.00,SCT,SKC,0.00,0.0,WeatherDisplay:10.37,2013-01-04 12:05:00,
2013-01-04 07:10:00,26.1,17.9,29.79,WNW,292,1.0,1.1,71,0.00,SCT,SKC,0.00,0.0,WeatherDisplay:10.37,2013-01-04 12:10:00,
2013-01-04 07:15:00,26.1,17.9,29.79,WSW,248,0.9,1.6,71,0.00,SCT,SKC,0.00,0.0,WeatherDisplay:10.37,2013-01-04 12:15:00,
2013-01-04 07:20:00,26.1,17.9,29.79,WSW,248,1.1,2.3,71,0.00,SCT,SKC,0.00,0.0,WeatherDisplay:10.37,2013-01-04 12:20:00,
2013-01-04 07:25:00,26.1,18.3,29.79,WNW,292,1.5,3.5,72,0.00,SCT,SKC,0.00,0.0,WeatherDisplay:10.37,2013-01-04 12:25:00,
2013-01-04 07:30:00,26.1,18.3,29.79,West,270,1.6,2.3,72,0.00,SCT,SKC,0.00,0.0,WeatherDisplay:10.37,2013-01-04 12:30:00,
2013-01-04 07:35:00,26.4,18.6,29.79,WSW,248,1.3,2.3,72,0.00,SCT,SKC,0.00,0.0,WeatherDisplay:10.37,2013-01-04 12:35:00,
2013-01-04 07:40:00,26.8,19.0,29.79,SW,225,1.1,1.1,72,0.00,SCT,SKC,0.00,0.0,WeatherDisplay:10.37,2013-01-04 12:40:00,
2013-01-04 07:45:00,26.8,19.0,29.79,West,270,1.7,3.5,72,0.00,SCT,SKC,0.00,0.0,WeatherDisplay:10.37,2013-01-04 12:45:00,
2013-01-04 07:50:00,26.8,19.0,29.79,WSW,248,1.6,2.3,72,0.00,SCT,SKC,0.00,0.0,WeatherDisplay:10.37,2013-01-04 12:50:00,
2013-01-04 07:55:00,27.0,19.1,29.79,WSW,248,1.4,2.3,72,0.00,SCT,SKC,0.00,0.0,WeatherDisplay:10.37,2013-01-04 12:55:00,
2013-01-04 08:00:00,27.1,19.3,29.79,West,270,1.6,3.6,72,0.00,SCT,SKC,0.00,0.0,WeatherDisplay:10.37,2013-01-04 13:00:00,
2013-01-04 08:05:00,27.3,19.5,29.79,SE,135,1.7,2.5,72,0.00,SCT,SKC,0.00,0.0,WeatherDisplay:10.37,2013-01-04 13:05:00,
2013-01-04 08:10:00,27.5,19.7,29.83,West,270,1.6,3.8,72,0.00,SCT,SKC,0.00,0.0,WeatherDisplay:10.37,2013-01-04 13:10:00,
2013-01-04 08:15:00,27.9,20.0,29.83,SW,225,1.7,5.8,72,0.00,SCT,SKC,0.00,0.0,WeatherDisplay:10.37,2013-01-04 13:15:00,
2013-01-04 08:20:00,28.2,20.3,29.83,West,270,2.0,5.8,72,0.00,SCT,SKC,0.00,0.0,WeatherDisplay:10.37,2013-01-04 13:20:00,
2013-01-04 08:25:00,28.2,20.3,29.83,NW,315,2.0,2.3,72,0.00,SCT,SKC,0.00,0.0,WeatherDisplay:10.37,2013-01-04 13:25:00,
2013-01-04 08:30:00,28.4,20.2,29.84,West,270,1.8,2.3,71,0.00,SCT,SKC,0.00,0.0,WeatherDisplay:10.37,2013-01-04 13:30:00,
2013-01-04 08:35:00,28.6,20.4,29.84,West,270,2.1,2.3,71,0.00,SCT,SKC,0.00,0.0,WeatherDisplay:10.37,2013-01-04 13:35:00,
2013-01-04 08:40:00,28.9,20.7,29.84,WNW,292,2.5,3.5,71,0.00,SCT,SKC,0.00,0.0,WeatherDisplay:10.37,2013-01-04 13:40:00,
2013-01-04 08:45:00,29.3,21.1,29.84,West,270,2.6,6.9,71,0.00,SCT,SKC,0.00,0.0,WeatherDisplay:10.37,2013-01-04 13:45:00,
2013-01-04 08:50:00,29.3,21.1,29.83,NNW,338,2.2,2.3,71,0.00,SCT,SKC,0.00,0.0,WeatherDisplay:10.37,2013-01-04 13:50:00,
2013-01-04 08:55:00,29.7,21.4,29.83,West,270,2.0,6.9,71,0.00,SCT,SKC,0.00,0.0,WeatherDisplay:10.37,2013-01-04 13:55:00,
2013-01-04 09:00:00,30.0,21.8,29.83,West,270,2.1,5.8,71,0.00,SCT,SKC,0.00,0.0,WeatherDisplay:10.37,2013-01-04 14:00:00,
2013-01-04 09:05:00,30.4,21.8,29.83,West,270,2.6,6.9,70,0.00,SCT,SKC,0.00,0.0,WeatherDisplay:10.37,2013-01-04 14:05:00,
2013-01-04 09:10:00,30.6,21.9,29.83,SE,135,3.2,3.5,70,0.00,SCT,SKC,0.00,0.0,WeatherDisplay:10.37,2013-01-04 14:10:00,
2013-01-04 09:15:00,30.9,21.9,29.83,WSW,248,2.8,3.5,69,0.00,SCT,SKC,0.00,0.0,WeatherDisplay:10.37,2013-01-04 14:15:00,
2013-01-04 09:20:00,31.5,22.5,29.83,NW,315,2.3,6.9,69,0.00,SCT,SKC,0.00,0.0,WeatherDisplay:10.37,2013-01-04 14:20:00,
2013-01-04 09:25:00,31.5,22.5,29.83,West,270,2.3,2.3,69,0.00,SCT,SKC,0.00,0.0,WeatherDisplay:10.37,2013-01-04 14:25:00,
2013-01-04 09:30:00,31.8,22.5,29.83,West,270,2.3,3.5,68,0.00,SCT,SKC,0.00,0.0,WeatherDisplay:10.37,2013-01-04 14:30:00,
2013-01-04 09:35:00,32.0,22.6,29.83,WSW,248,2.8,6.9,68,0.00,SCT,SKC,0.00,0.0,WeatherDisplay:10.37,2013-01-04 14:35:00,
2013-01-04 09:40:00,32.5,23.1,29.83,West,270,3.3,6.9,68,0.00,SCT,SKC,0.00,0.0,WeatherDisplay:10.37,2013-01-04 14:40:00,
2013-01-04 09:45:00,32.5,22.8,29.83,WSW,248,2.9,2.9,67,0.00,SCT,SKC,0.00,0.0,WeatherDisplay:10.37,2013-01-04 14:45:00,
2013-01-04 09:50:00,32.9,23.1,29.82,WNW,292,2.6,3.5,67,0.00,SCT,SKC,0.00,0.0,WeatherDisplay:10.37,2013-01-04 14:50:00,
2013-01-04 09:55:00,33.3,23.1,29.82,NW,315,2.6,6.9,66,0.00,SCT,SKC,0.00,0.0,WeatherDisplay:10.37,2013-01-04 14:55:00,
2013-01-04 10:00:00,33.4,23.3,29.82,West,270,3.7,8.4,66,0.00,SCT,SKC,0.00,0.0,WeatherDisplay:10.37,2013-01-04 15:00:00,
2013-01-04 10:05:00,33.6,23.1,29.82,West,270,3.9,6.9,65,0.00,SCT,SKC,0.00,0.0,WeatherDisplay:10.37,2013-01-04 15:05:00,
2013-01-04 10:10:00,33.8,23.3,29.81,West,270,3.9,10.4,65,0.00,SCT,SKC,0.00,0.0,WeatherDisplay:10.37,2013-01-04 15:10:00,
2013-01-04 10:15:00,34.0,23.1,29.81,WSW,248,4.3,9.2,64,0.00,SCT,SKC,0.00,0.0,WeatherDisplay:10.37,2013-01-04 15:15:00,
2013-01-04 10:20:00,34.3,23.4,29.81,West,270,4.4,4.8,64,0.00,SCT,SKC,0.00,0.0,WeatherDisplay:10.37,2013-01-04 15:20:00,
2013-01-04 10:25:00,34.3,23.0,29.81,NNW,338,4.1,5.8,63,0.00,SCT,SKC,0.00,0.0,WeatherDisplay:10.37,2013-01-04 15:25:00,
2013-01-04 10:30:00,34.7,23.0,29.81,West,270,4.7,9.2,62,0.00,SCT,SKC,0.00,0.0,WeatherDisplay:10.37,2013-01-04 15:30:00,
2013-01-04 10:35:00,34.9,23.2,29.81,West,270,5.3,5.3,62,0.00,SCT,SKC,0.00,0.0,WeatherDisplay:10.37,2013-01-04 15:35:00,
2013-01-04 10:40:00,35.1,23.3,29.81,NW,315,4.5,6.9,62,0.00,SCT,SKC,0.00,0.0,WeatherDisplay:10.37,2013-01-04 15:40:00,
2013-01-04 10:45:00,35.4,23.3,29.81,West,270,3.5,3.5,61,0.00,SCT,SKC,0.00,0.0,WeatherDisplay:10.37,2013-01-04 15:45:00,
2013-01-04 10:50:00,35.4,23.3,29.80,NW,315,3.9,5.8,61,0.00,SCT,SKC,0.00,0.0,WeatherDisplay:10.37,2013-01-04 15:50:00,
2013-01-04 10:55:00,35.6,23.1,29.80,NW,315,4.0,5.8,60,0.00,SCT,SKC,0.00,0.0,WeatherDisplay:10.37,2013-01-04 15:55:00,
2013-01-04 11:01:00,35.6,23.1,29.80,South,180,3.5,9.2,60,0.00,SCT,SKC,0.00,0.0,WeatherDisplay:10.37,2013-01-04 16:01:00,
2013-01-04 11:06:00,35.8,23.2,29.80,West,270,3.1,4.6,60,0.00,SCT,SKC,0.00,0.0,WeatherDisplay:10.37,2013-01-04 16:06:00,
2013-01-04 11:11:00,36.1,23.6,29.78,West,270,3.5,5.8,60,0.00,SCT,SKC,0.00,0.0,WeatherDisplay:10.37,2013-01-04 16:11:00,
2013-01-04 11:16:00,36.1,23.2,29.78,West,270,3.5,5.8,59,0.00,SCT,SKC,0.00,0.0,WeatherDisplay:10.37,2013-01-04 16:16:00,
2013-01-04 11:21:00,36.3,23.3,29.78,West,270,3.6,6.0,59,0.00,SCT,SKC,0.00,0.0,WeatherDisplay:10.37,2013-01-04 16:21:00,
2013-01-04 11:26:00,36.3,22.9,29.78,WSW,248,4.1,4.1,58,0.00,SCT,SKC,0.00,0.0,WeatherDisplay:10.37,2013-01-04 16:26:00,
2013-01-04 11:31:00,36.5,23.1,29.77,WNW,292,4.6,4.6,58,0.00,SCT,SKC,0.00,0.0,WeatherDisplay:10.37,2013-01-04 16:31:00,
2013-01-04 11:36:00,36.9,23.4,29.77,WSW,248,4.0,8.1,58,0.00,SCT,SKC,0.00,0.0,WeatherDisplay:10.37,2013-01-04 16:36:00,
2013-01-04 11:41:00,36.9,23.4,29.77,WSW,248,3.3,6.9,58,0.00,SCT,SKC,0.00,0.0,WeatherDisplay:10.37,2013-01-04 16:41:00,
2013-01-04 11:46:00,37.0,23.2,29.77,West,270,3.9,8.1,57,0.00,SCT,SKC,0.00,0.0,WeatherDisplay:10.37,2013-01-04 16:46:00,
2013-01-04 11:51:00,37.0,23.6,29.77,WSW,248,4.3,9.2,58,0.00,SCT,SKC,0.00,0.0,WeatherDisplay:10.37,2013-01-04 16:51:00,
2013-01-04 11:56:00,37.0,23.2,29.77,WNW,292,3.7,3.7,57,0.00,SCT,SKC,0.00,0.0,WeatherDisplay:10.37,2013-01-04 16:56:00,
2013-01-04 12:01:00,37.2,23.8,29.77,SSE,158,3.1,3.5,58,0.00,SCT,SKC,0.00,0.0,WeatherDisplay:10.37,2013-01-04 17:01:00,
2013-01-04 12:06:00,37.2,23.8,29.77,SSE,158,2.9,5.8,58,0.00,SCT,SKC,0.00,0.0,WeatherDisplay:10.37,2013-01-04 17:06:00,
2013-01-04 12:11:00,37.2,23.4,29.75,WSW,248,3.7,5.8,57,0.00,SCT,SKC,0.00,0.0,WeatherDisplay:10.37,2013-01-04 17:11:00,
2013-01-04 12:16:00,37.6,24.1,29.75,West,270,3.6,3.6,58,0.00,SCT,SKC,0.00,0.0,WeatherDisplay:10.37,2013-01-04 17:16:00,
2013-01-04 12:21:00,37.4,24.0,29.75,WNW,292,3.3,9.2,58,0.00,SCT,SKC,0.00,0.0,WeatherDisplay:10.37,2013-01-04 17:21:00,
2013-01-04 12:26:00,37.6,24.1,29.75,SW,225,3.5,3.5,58,0.00,SCT,SKC,0.00,0.0,WeatherDisplay:10.37,2013-01-04 17:26:00,
2013-01-04 12:31:00,37.6,24.1,29.73,WSW,248,3.2,4.6,58,0.00,SCT,SKC,0.00,0.0,WeatherDisplay:10.37,2013-01-04 17:31:00,
2013-01-04 12:36:00,37.8,24.7,29.73,SW,225,2.8,3.5,59,0.00,SCT,SKC,0.00,0.0,WeatherDisplay:10.37,2013-01-04 17:36:00,
2013-01-04 12:41:00,37.8,24.7,29.73,West,270,2.9,8.1,59,0.00,SCT,SKC,0.00,0.0,WeatherDisplay:10.37,2013-01-04 17:41:00,
2013-01-04 12:46:00,37.9,24.9,29.73,West,270,2.9,2.9,59,0.00,SCT,SKC,0.00,0.0,WeatherDisplay:10.37,2013-01-04 17:46:00,
2013-01-04 12:51:00,37.9,24.9,29.72,WSW,248,3.2,9.2,59,0.00,SCT,SKC,0.00,0.0,WeatherDisplay:10.37,2013-01-04 17:51:00,
2013-01-04 12:56:00,38.3,25.2,29.72,South,180,2.6,3.8,59,0.00,SCT,SKC,0.00,0.0,WeatherDisplay:10.37,2013-01-04 17:56:00,
2013-01-04 13:01:00,38.3,25.2,29.72,West,270,2.9,6.9,59,0.00,SCT,SKC,0.00,0.0,WeatherDisplay:10.37,2013-01-04 18:01:00,
2013-01-04 13:06:00,38.3,25.2,29.72,West,270,3.5,5.8,59,0.00,SCT,SKC,0.00,0.0,WeatherDisplay:10.37,2013-01-04 18:06:00,
2013-01-04 13:11:00,38.1,25.0,29.71,ESE,112,3.6,8.1,59,0.00,SCT,SKC,0.00,0.0,WeatherDisplay:10.37,2013-01-04 18:11:00,
2013-01-04 13:16:00,38.3,25.2,29.71,SW,225,3.8,4.6,59,0.00,SCT,SKC,0.00,0.0,WeatherDisplay:10.37,2013-01-04 18:16:00,
2013-01-04 13:21:00,38.5,25.4,29.71,WSW,248,3.9,5.8,59,0.00,SCT,SKC,0.00,0.0,WeatherDisplay:10.37,2013-01-04 18:21:00,
2013-01-04 13:26:00,38.5,25.4,29.71,West,270,4.1,5.8,59,0.00,SCT,SKC,0.00,0.0,WeatherDisplay:10.37,2013-01-04 18:26:00,
2013-01-04 13:31:00,38.3,25.2,29.71,WNW,292,4.1,4.6,59,0.00,SCT,SKC,0.00,0.0,WeatherDisplay:10.37,2013-01-04 18:31:00,
2013-01-04 13:36:00,38.3,25.2,29.71,West,270,4.6,5.8,59,0.00,SCT,SKC,0.00,0.0,WeatherDisplay:10.37,2013-01-04 18:36:00,
2013-01-04 13:41:00,38.3,25.2,29.71,WSW,248,4.6,8.1,59,0.00,SCT,SKC,0.00,0.0,WeatherDisplay:10.37,2013-01-04 18:41:00,
2013-01-04 13:46:00,38.7,25.6,29.71,WSW,248,4.3,4.6,59,0.00,SCT,SKC,0.00,0.0,WeatherDisplay:10.37,2013-01-04 18:46:00,
2013-01-04 13:51:00,38.5,25.4,29.69,SW,225,4.1,6.9,59,0.00,SCT,SKC,0.00,0.0,WeatherDisplay:10.37,2013-01-04 18:51:00,
2013-01-04 13:56:00,39.0,25.9,29.69,WSW,248,3.9,8.1,59,0.00,SCT,SKC,0.00,0.0,WeatherDisplay:10.37,2013-01-04 18:56:00,
2013-01-04 14:01:00,39.0,25.9,29.69,SSW,202,3.6,8.1,59,0.00,SCT,SKC,0.00,0.0,WeatherDisplay:10.37,2013-01-04 19:01:00,
2013-01-04 14:06:00,39.2,25.6,29.69,SW,225,3.6,3.6,58,0.00,SCT,SKC,0.00,0.0,WeatherDisplay:10.37,2013-01-04 19:06:00,
2013-01-04 14:11:00,39.2,25.6,29.69,West,270,4.0,6.9,58,0.00,SCT,SKC,0.00,0.0,WeatherDisplay:10.37,2013-01-04 19:11:00,
2013-01-04 14:16:00,39.4,25.8,29.69,WNW,292,3.6,7.0,58,0.00,SCT,SKC,0.00,0.0,WeatherDisplay:10.37,2013-01-04 19:16:00,
2013-01-04 14:21:00,39.4,25.8,29.69,WSW,248,3.5,9.2,58,0.00,SCT,SKC,0.00,0.0,WeatherDisplay:10.37,2013-01-04 19:21:00,
2013-01-04 14:26:00,39.2,25.6,29.69,West,270,4.3,8.1,58,0.00,SCT,SKC,0.00,0.0,WeatherDisplay:10.37,2013-01-04 19:26:00,
2013-01-04 14:31:00,39.4,25.8,29.69,South,180,4.1,4.1,58,0.00,SCT,SKC,0.00,0.0,WeatherDisplay:10.37,2013-01-04 19:31:00,
2013-01-04 14:36:00,39.4,25.8,29.69,WSW,248,3.0,3.5,58,0.00,SCT,SKC,0.00,0.0,WeatherDisplay:10.37,2013-01-04 19:36:00,
2013-01-04 14:41:00,39.2,25.6,29.69,West,270,2.9,2.9,58,0.00,SCT,SKC,0.00,0.0,WeatherDisplay:10.37,2013-01-04 19:41:00,
2013-01-04 14:46:00,39.2,26.1,29.69,ESE,112,3.0,6.9,59,0.00,SCT,SKC,0.00,0.0,WeatherDisplay:10.37,2013-01-04 19:46:00,
2013-01-04 14:51:00,39.4,25.8,29.70,SW,225,2.8,2.8,58,0.00,SCT,SKC,0.00,0.0,WeatherDisplay:10.37,2013-01-04 19:51:00,
2013-01-04 14:56:00,39.0,25.5,29.70,WSW,248,2.6,5.8,58,0.00,SCT,SKC,0.00,0.0,WeatherDisplay:10.37,2013-01-04 19:56:00,
2013-01-04 15:01:00,38.8,25.3,29.70,SSW,202,2.6,5.8,58,0.00,SCT,SKC,0.00,0.0,WeatherDisplay:10.37,2013-01-04 20:01:00,
2013-01-04 15:06:00,39.0,25.9,29.70,SW,225,2.9,4.6,59,0.00,SCT,SKC,0.00,0.0,WeatherDisplay:10.37,2013-01-04 20:06:00,
2013-01-04 15:11:00,39.0,25.9,29.70,WSW,248,3.5,3.5,59,0.00,SCT,SKC,0.00,0.0,WeatherDisplay:10.37,2013-01-04 20:11:00,
2013-01-04 15:16:00,38.8,25.7,29.70,WSW,248,3.6,6.9,59,0.00,SCT,SKC,0.00,0.0,WeatherDisplay:10.37,2013-01-04 20:16:00,
2013-01-04 15:21:00,38.7,25.6,29.70,SE,135,3.3,3.5,59,0.00,SCT,SKC,0.00,0.0,WeatherDisplay:10.37,2013-01-04 20:21:00,
2013-01-04 15:26:00,38.7,26.0,29.70,SW,225,3.1,3.5,60,0.00,SCT,SKC,0.00,0.0,WeatherDisplay:10.37,2013-01-04 20:26:00,
2013-01-04 15:31:00,38.7,26.0,29.69,WSW,248,3.3,3.5,60,0.00,SCT,SKC,0.00,0.0,WeatherDisplay:10.37,2013-01-04 20:31:00,
2013-01-04 15:36:00,38.7,26.0,29.69,WNW,292,3.5,3.5,60,0.00,SCT,SKC,0.00,0.0,WeatherDisplay:10.37,2013-01-04 20:36:00,
2013-01-04 15:41:00,38.7,26.0,29.69,WSW,248,3.6,7.1,60,0.00,SCT,SKC,0.00,0.0,WeatherDisplay:10.37,2013-01-04 20:41:00,
2013-01-04 15:46:00,38.5,25.8,29.69,SW,225,4.0,6.9,60,0.00,SCT,SKC,0.00,0.0,WeatherDisplay:10.37,2013-01-04 20:46:00,
2013-01-04 15:51:00,38.5,25.8,29.70,West,270,3.5,5.8,60,0.00,SCT,SKC,0.00,0.0,WeatherDisplay:10.37,2013-01-04 20:51:00,
2013-01-04 15:56:00,38.3,25.6,29.70,WSW,248,3.5,8.1,60,0.00,SCT,SKC,0.00,0.0,WeatherDisplay:10.37,2013-01-04 20:56:00,
2013-01-04 16:01:00,38.3,25.6,29.70,South,180,4.3,4.6,60,0.00,SCT,SKC,0.00,0.0,WeatherDisplay:10.37,2013-01-04 21:01:00,
2013-01-04 16:06:00,37.9,25.3,29.70,WSW,248,4.4,5.8,60,0.00,SCT,SKC,0.00,0.0,WeatherDisplay:10.37,2013-01-04 21:06:00,
2013-01-04 16:11:00,37.9,25.3,29.69,SSW,202,3.9,6.9,60,0.00,SCT,SKC,0.00,0.0,WeatherDisplay:10.37,2013-01-04 21:11:00,
2013-01-04 16:16:00,37.8,25.5,29.69,SW,225,3.0,3.7,61,0.00,SCT,SKC,0.00,0.0,WeatherDisplay:10.37,2013-01-04 21:16:00,
2013-01-04 16:21:00,37.8,25.5,29.69,West,270,2.5,2.6,61,0.00,SCT,SKC,0.00,0.0,WeatherDisplay:10.37,2013-01-04 21:21:00,
2013-01-04 16:26:00,37.6,25.7,29.69,WNW,292,2.6,5.8,62,0.00,SCT,SKC,0.00,0.0,WeatherDisplay:10.37,2013-01-04 21:26:00,
2013-01-04 16:31:00,37.6,25.7,29.65,WSW,248,2.6,5.4,62,0.00,SCT,SKC,0.00,0.0,WeatherDisplay:10.37,2013-01-04 21:31:00,
2013-01-04 16:36:00,37.6,25.7,29.65,WNW,292,2.4,2.4,62,0.00,SCT,SKC,0.00,0.0,WeatherDisplay:10.37,2013-01-04 21:36:00,
2013-01-04 16:41:00,37.2,25.4,29.65,WSW,248,2.6,2.6,62,0.00,SCT,SKC,0.00,0.0,WeatherDisplay:10.37,2013-01-04 21:41:00,
2013-01-04 16:46:00,37.0,25.2,29.65,SW,225,2.6,5.8,62,0.00,SCT,SKC,0.00,0.0,WeatherDisplay:10.37,2013-01-04 21:46:00,
2013-01-04 16:51:00,37.0,25.2,29.64,WSW,248,2.4,4.6,62,0.00,SCT,SKC,0.00,0.0,WeatherDisplay:10.37,2013-01-04 21:51:00,
2013-01-04 16:56:00,37.0,25.2,29.64,WSW,248,2.4,6.9,62,0.00,SCT,SKC,0.00,0.0,WeatherDisplay:10.37,2013-01-04 21:56:00,
2013-01-04 17:02:00,36.9,25.4,29.64,WSW,248,2.4,4.6,63,0.00,SCT,SKC,0.00,0.0,WeatherDisplay:10.37,2013-01-04 22:02:00,
2013-01-04 17:07:00,36.7,25.3,29.64,SSE,158,2.2,3.5,63,0.00,SCT,SKC,0.00,0.0,WeatherDisplay:10.37,2013-01-04 22:07:00,
2013-01-04 17:12:00,36.9,25.4,29.65,South,180,2.3,3.5,63,0.00,SCT,SKC,0.00,0.0,WeatherDisplay:10.37,2013-01-04 22:12:00,
2013-01-04 17:17:00,36.5,25.5,29.65,SW,225,2.1,2.3,64,0.00,SCT,SKC,0.00,0.0,WeatherDisplay:10.37,2013-01-04 22:17:00,
2013-01-04 17:22:00,36.5,25.5,29.65,West,270,1.5,3.5,64,0.00,SCT,SKC,0.00,0.0,WeatherDisplay:10.37,2013-01-04 22:22:00,
2013-01-04 17:27:00,36.5,25.5,29.65,NW,315,1.6,2.3,64,0.00,SCT,SKC,0.00,0.0,WeatherDisplay:10.37,2013-01-04 22:27:00,
2013-01-04 17:32:00,36.3,25.3,29.65,SSE,158,1.5,2.3,64,0.00,SCT,SKC,0.00,0.0,WeatherDisplay:10.37,2013-01-04 22:32:00,
2013-01-04 17:37:00,36.5,25.5,29.65,WSW,248,1.6,2.3,64,0.00,SCT,SKC,0.00,0.0,WeatherDisplay:10.37,2013-01-04 22:37:00,
2013-01-04 17:42:00,36.3,25.7,29.65,SW,225,1.1,4.6,65,0.00,SCT,SKC,0.00,0.0,WeatherDisplay:10.37,2013-01-04 22:42:00,
2013-01-04 17:47:00,36.1,25.5,29.65,WSW,248,1.1,3.5,65,0.00,SCT,SKC,0.00,0.0,WeatherDisplay:10.37,2013-01-04 22:47:00,
2013-01-04 17:52:00,36.1,25.5,29.66,SE,135,1.6,4.6,65,0.00,SCT,SKC,0.00,0.0,WeatherDisplay:10.37,2013-01-04 22:52:00,
2013-01-04 17:57:00,36.1,25.5,29.66,WSW,248,1.5,2.3,65,0.00,SCT,SKC,0.00,0.0,WeatherDisplay:10.37,2013-01-04 22:57:00,
2013-01-04 18:02:00,36.1,25.5,29.66,NW,315,1.1,1.1,65,0.00,SCT,SKC,0.00,0.0,WeatherDisplay:10.37,2013-01-04 23:02:00,
2013-01-04 18:07:00,36.1,25.5,29.66,WNW,292,1.5,5.8,65,0.00,SCT,SKC,0.00,0.0,WeatherDisplay:10.37,2013-01-04 23:07:00,
2013-01-04 18:12:00,36.1,25.5,29.67,West,270,2.0,2.3,65,0.00,SCT,SKC,0.00,0.0,WeatherDisplay:10.37,2013-01-04 23:12:00,
2013-01-04 18:17:00,35.8,25.2,29.67,WSW,248,2.0,3.5,65,0.00,SCT,SKC,0.00,0.0,WeatherDisplay:10.37,2013-01-04 23:17:00,
2013-01-04 18:22:00,35.8,25.5,29.67,SSW,202,1.6,0.0,66,0.00,SCT,SKC,0.00,0.0,WeatherDisplay:10.37,2013-01-04 23:22:00,
2013-01-04 18:27:00,35.8,25.5,29.67,SW,225,1.4,2.3,66,0.00,SCT,SKC,0.00,0.0,WeatherDisplay:10.37,2013-01-04 23:27:00,
2013-01-04 18:32:00,35.8,25.2,29.66,West,270,1.4,2.3,65,0.00,SCT,SKC,0.00,0.0,WeatherDisplay:10.37,2013-01-04 23:32:00,
2013-01-04 18:37:00,35.8,25.5,29.66,WSW,248,1.3,0.0,66,0.00,SCT,SKC,0.00,0.0,WeatherDisplay:10.37,2013-01-04 23:37:00,
2013-01-04 18:42:00,35.6,25.4,29.66,SW,225,1.4,4.6,66,0.00,SCT,SKC,0.00,0.0,WeatherDisplay:10.37,2013-01-04 23:42:00,
2013-01-04 18:47:00,35.6,25.4,29.66,West,270,1.7,1.7,66,0.00,SCT,SKC,0.00,0.0,WeatherDisplay:10.37,2013-01-04 23:47:00,
2013-01-04 18:52:00,35.6,25.4,29.67,West,270,2.1,2.9,66,0.00,SCT,SKC,0.00,0.0,WeatherDisplay:10.37,2013-01-04 23:52:00,
2013-01-04 18:57:00,35.6,25.4,29.67,West,270,2.2,4.6,66,0.00,SCT,SKC,0.00,0.0,WeatherDisplay:10.37,2013-01-04 23:57:00,
2013-01-04 19:02:00,35.8,25.5,29.67,SW,225,2.3,3.5,66,0.00,SCT,SKC,0.00,0.0,WeatherDisplay:10.37,2013-01-05 00:02:00,
2013-01-04 19:07:00,35.6,25.4,29.67,WSW,248,2.3,3.8,66,0.00,SCT,SKC,0.00,0.0,WeatherDisplay:10.37,2013-01-05 00:07:00,
2013-01-04 19:12:00,35.6,25.4,29.67,West,270,2.1,2.3,66,0.00,SCT,SKC,0.00,0.0,WeatherDisplay:10.37,2013-01-05 00:12:00,
2013-01-04 19:17:00,35.4,25.2,29.67,SW,225,2.0,2.5,66,0.00,SCT,SKC,0.00,0.0,WeatherDisplay:10.37,2013-01-05 00:17:00,
2013-01-04 19:22:00,35.4,25.2,29.67,SW,225,1.5,2.3,66,0.00,SCT,SKC,0.00,0.0,WeatherDisplay:10.37,2013-01-05 00:22:00,
2013-01-04 19:27:00,35.4,25.2,29.67,WSW,248,1.7,3.5,66,0.00,SCT,SKC,0.00,0.0,WeatherDisplay:10.37,2013-01-05 00:27:00,
2013-01-04 19:32:00,35.4,25.2,29.67,NW,315,2.3,3.5,66,0.00,SCT,SKC,0.00,0.0,WeatherDisplay:10.37,2013-01-05 00:32:00,
2013-01-04 19:37:00,35.4,25.2,29.67,WSW,248,2.6,5.8,66,0.00,SCT,SKC,0.00,0.0,WeatherDisplay:10.37,2013-01-05 00:37:00,
2013-01-04 19:42:00,35.1,24.8,29.67,SW,225,2.5,2.5,66,0.00,SCT,SKC,0.00,0.0,WeatherDisplay:10.37,2013-01-05 00:42:00,
2013-01-04 19:47:00,34.9,24.7,29.67,WNW,292,2.0,2.3,66,0.00,SCT,SKC,0.00,0.0,WeatherDisplay:10.37,2013-01-05 00:47:00,
2013-01-04 19:52:00,34.7,24.5,29.69,West,270,2.0,0.0,66,0.00,SCT,SKC,0.00,0.0,WeatherDisplay:10.37,2013-01-05 00:52:00,
2013-01-04 19:57:00,34.7,24.5,29.69,North,0,2.0,2.3,66,0.00,SCT,SKC,0.00,0.0,WeatherDisplay:10.37,2013-01-05 00:57:00,
2013-01-04 20:02:00,34.7,24.5,29.69,South,180,2.2,3.5,66,0.00,SCT,SKC,0.00,0.0,WeatherDisplay:10.37,2013-01-05 01:02:00,
2013-01-04 20:07:00,34.7,24.5,29.69,West,270,2.2,5.8,66,0.00,SCT,SKC,0.00,0.0,WeatherDisplay:10.37,2013-01-05 01:07:00,
2013-01-04 20:12:00,34.5,24.3,29.67,SSE,158,1.7,2.3,66,0.00,SCT,SKC,0.00,0.0,WeatherDisplay:10.37,2013-01-05 01:12:00,
2013-01-04 20:17:00,34.3,24.2,29.67,East,90,1.6,9.2,66,0.00,SCT,SKC,0.00,0.0,WeatherDisplay:10.37,2013-01-05 01:17:00,
2013-01-04 20:22:00,34.2,24.0,29.67,WNW,292,2.0,2.3,66,0.00,SCT,SKC,0.00,0.0,WeatherDisplay:10.37,2013-01-05 01:22:00,
2013-01-04 20:27:00,34.3,24.2,29.67,SW,225,2.0,3.5,66,0.00,SCT,SKC,0.00,0.0,WeatherDisplay:10.37,2013-01-05 01:27:00,
2013-01-04 20:32:00,34.2,24.0,29.68,NNE,22,2.1,2.1,66,0.00,SCT,SKC,0.00,0.0,WeatherDisplay:10.37,2013-01-05 01:32:00,
2013-01-04 20:37:00,34.2,24.0,29.68,West,270,2.0,4.6,66,0.00,SCT,SKC,0.00,0.0,WeatherDisplay:10.37,2013-01-05 01:37:00,
2013-01-04 20:42:00,34.0,23.8,29.68,WSW,248,2.1,8.1,66,0.00,SCT,SKC,0.00,0.0,WeatherDisplay:10.37,2013-01-05 01:42:00,
2013-01-04 20:47:00,33.8,23.6,29.68,WSW,248,2.0,2.3,66,0.00,SCT,SKC,0.00,0.0,WeatherDisplay:10.37,2013-01-05 01:47:00,
2013-01-04 20:52:00,34.0,23.8,29.67,West,270,2.0,5.8,66,0.00,SCT,SKC,0.00,0.0,WeatherDisplay:10.37,2013-01-05 01:52:00,
2013-01-04 20:57:00,33.6,23.5,29.67,West,270,2.0,4.6,66,0.00,SCT,SKC,0.00,0.0,WeatherDisplay:10.37,2013-01-05 01:57:00,
2013-01-04 21:02:00,33.6,23.5,29.67,WSW,248,1.8,1.8,66,0.00,SCT,SKC,0.00,0.0,WeatherDisplay:10.37,2013-01-05 02:02:00,
2013-01-04 21:07:00,33.4,23.3,29.67,NW,315,2.2,4.6,66,0.00,SCT,SKC,0.00,0.0,WeatherDisplay:10.37,2013-01-05 02:07:00,
2013-01-04 21:12:00,33.4,23.3,29.68,SSW,202,2.6,4.6,66,0.00,SCT,SKC,0.00,0.0,WeatherDisplay:10.37,2013-01-05 02:12:00,
2013-01-04 21:17:00,33.6,23.5,29.68,West,270,2.2,2.3,66,0.00,SCT,SKC,0.00,0.0,WeatherDisplay:10.37,2013-01-05 02:17:00,
2013-01-04 21:22:00,33.6,23.5,29.68,WSW,248,1.8,2.3,66,0.00,SCT,SKC,0.00,0.0,WeatherDisplay:10.37,2013-01-05 02:22:00,
2013-01-04 21:27:00,33.3,23.1,29.68,South,180,1.8,2.3,66,0.00,SCT,SKC,0.00,0.0,WeatherDisplay:10.37,2013-01-05 02:27:00,
2013-01-04 21:32:00,33.3,23.1,29.67,WSW,248,1.8,2.3,66,0.00,SCT,SKC,0.00,0.0,WeatherDisplay:10.37,2013-01-05 02:32:00,
2013-01-04 21:37:00,33.3,23.1,29.67,WSW,248,1.8,2.3,66,0.00,SCT,SKC,0.00,0.0,WeatherDisplay:10.37,2013-01-05 02:37:00,
2013-01-04 21:42:00,33.1,22.9,29.67,South,180,1.3,2.3,66,0.00,SCT,SKC,0.00,0.0,WeatherDisplay:10.37,2013-01-05 02:42:00,
2013-01-04 21:47:00,32.9,22.8,29.67,WSW,248,1.3,2.3,66,0.00,SCT,SKC,0.00,0.0,WeatherDisplay:10.37,2013-01-05 02:47:00,
2013-01-04 21:52:00,32.7,22.6,29.67,NW,315,2.0,3.5,66,0.00,SCT,SKC,0.00,0.0,WeatherDisplay:10.37,2013-01-05 02:52:00,
2013-01-04 21:57:00,32.7,22.6,29.67,WNW,292,2.0,0.0,66,0.00,SCT,SKC,0.00,0.0,WeatherDisplay:10.37,2013-01-05 02:57:00,
2013-01-04 22:02:00,32.7,22.6,29.67,WSW,248,1.3,2.3,66,0.00,SCT,SKC,0.00,0.0,WeatherDisplay:10.37,2013-01-05 03:02:00,
2013-01-04 22:07:00,32.9,23.1,29.67,WSW,248,1.1,2.3,67,0.00,SCT,SKC,0.00,0.0,WeatherDisplay:10.37,2013-01-05 03:07:00,
2013-01-04 22:12:00,32.7,23.0,29.67,SW,225,1.1,3.5,67,0.00,SCT,SKC,0.00,0.0,WeatherDisplay:10.37,2013-01-05 03:12:00,
2013-01-04 22:17:00,32.5,22.8,29.67,NNW,338,0.8,0.0,67,0.00,SCT,SKC,0.00,0.0,WeatherDisplay:10.37,2013-01-05 03:17:00,
2013-01-04 22:22:00,32.5,22.8,29.67,West,270,0.7,2.3,67,0.00,SCT,SKC,0.00,0.0,WeatherDisplay:10.37,2013-01-05 03:22:00,
2013-01-04 22:27:00,32.5,22.8,29.67,NNW,338,0.7,0.0,67,0.00,SCT,SKC,0.00,0.0,WeatherDisplay:10.37,2013-01-05 03:27:00,
2013-01-04 22:32:00,32.5,22.8,29.68,WSW,248,0.8,3.5,67,0.00,SCT,SKC,0.00,0.0,WeatherDisplay:10.37,2013-01-05 03:32:00,
2013-01-04 22:37:00,32.5,22.8,29.68,WSW,248,1.0,3.5,67,0.00,SCT,SKC,0.00,0.0,WeatherDisplay:10.37,2013-01-05 03:37:00,
2013-01-04 22:42:00,32.5,22.8,29.68,SE,135,1.0,2.3,67,0.00,SCT,SKC,0.00,0.0,WeatherDisplay:10.37,2013-01-05 03:42:00,
2013-01-04 22:47:00,32.5,22.8,29.68,West,270,0.8,0.0,67,0.00,SCT,SKC,0.00,0.0,WeatherDisplay:10.37,2013-01-05 03:47:00,
2013-01-04 22:53:00,32.2,22.4,29.68,SSW,202,0.6,1.1,67,0.00,SCT,SKC,0.00,0.0,WeatherDisplay:10.37,2013-01-05 03:53:00,
2013-01-04 22:58:00,32.2,22.4,29.68,SW,225,0.5,1.5,67,0.00,SCT,SKC,0.00,0.0,WeatherDisplay:10.37,2013-01-05 03:58:00,
2013-01-04 23:03:00,32.0,22.3,29.68,West,270,0.3,1.1,67,0.00,SCT,SKC,0.00,0.0,WeatherDisplay:10.37,2013-01-05 04:03:00,
2013-01-04 23:08:00,32.0,22.3,29.68,SW,225,0.6,1.1,67,0.00,SCT,SKC,0.00,0.0,WeatherDisplay:10.37,2013-01-05 04:08:00,
2013-01-04 23:13:00,31.8,22.1,29.68,WSW,248,0.6,1.1,67,0.00,SCT,SKC,0.00,0.0,WeatherDisplay:10.37,2013-01-05 04:13:00,
2013-01-04 23:18:00,31.8,22.1,29.68,WNW,292,0.7,1.3,67,0.00,SCT,SKC,0.00,0.0,WeatherDisplay:10.37,2013-01-05 04:18:00,
2013-01-04 23:23:00,31.8,22.5,29.68,SW,225,1.1,2.3,68,0.00,SCT,SKC,0.00,0.0,WeatherDisplay:10.37,2013-01-05 04:23:00,
2013-01-04 23:28:00,31.8,22.5,29.68,WSW,248,1.1,1.1,68,0.00,SCT,SKC,0.00,0.0,WeatherDisplay:10.37,2013-01-05 04:28:00,
2013-01-04 23:33:00,31.8,22.5,29.67,South,180,0.8,3.5,68,0.00,SCT,SKC,0.00,0.0,WeatherDisplay:10.37,2013-01-05 04:33:00,
2013-01-04 23:38:00,31.8,22.5,29.67,WSW,248,0.9,2.3,68,0.00,SCT,SKC,0.00,0.0,WeatherDisplay:10.37,2013-01-05 04:38:00,
2013-01-04 23:43:00,31.6,21.9,29.67,WSW,248,0.8,2.3,67,0.00,SCT,SKC,0.00,0.0,WeatherDisplay:10.37,2013-01-05 04:43:00,
2013-01-04 23:48:00,31.8,22.5,29.67,SSE,158,0.8,2.3,68,0.00,SCT,SKC,0.00,0.0,WeatherDisplay:10.37,2013-01-05 04:48:00,
2013-01-04 23:53:00,31.8,22.5,29.69,WSW,248,0.8,2.3,68,0.00,SCT,SKC,0.00,0.0,WeatherDisplay:10.37,2013-01-05 04:53:00,
2013-01-04 23:58:00,31.5,22.1,29.69,West,270,1.1,2.3,68,0.00,SCT,SKC,0.00,0.0,WeatherDisplay:10.37,2013-01-05 04:58:00,